Regional Weather Roundup
Issued by NWS

Home | Current Version | Previous Version | Text Only | Print | Product List | Glossary On
Versions: 1 2 3 4 5 6 7 8 9 10 11 12 13 14 15 16 17 18 19 20 21 22 23 24 25 26 27 28 29 30 31 32 33 34 35 36 37 38 39 40 41 42 43 44 45 46 47 48 49 50
000
ASUS43 KTOP 201459
RWRKS

WEATHER ROUNDUP FOR KANSAS
NATIONAL WEATHER SERVICE GOODLAND KS
1000 AM CDT SUN APR 20 2014

NOTE:  "FAIR" INDICATES FEW OR NO CLOUDS BELOW 12,000 FEET WITH NO
SIGNIFICANT WEATHER AND/OR OBSTRUCTIONS TO VISIBILITY.

KSZ001>006-013>018-027>032-041>047-201600-
NORTHWEST KANSAS

CITY           SKY/WX    TMP DP  RH WIND       PRES   REMARKS
GOODLAND       CLOUDY    53  49  86 N6        30.02R
HAYS           CLOUDY    66  52  59 S15       30.01S
HILL CITY      CLOUDY    60  53  77 SW6       30.00S
RUSSELL        CLOUDY    68  51  54 S20       30.00S
$$

KSZ061>065-074>080-084>089-201600-
SOUTHWEST KANSAS

CITY           SKY/WX    TMP DP  RH WIND       PRES   REMARKS
DODGE CITY     CLOUDY    62  50  64 S17       30.03S
ELKHART          N/A     60  47  62 S13         N/A
GARDEN CITY    MOSUNNY   62  51  67 S18       30.00S
GREAT BEND     CLOUDY    64  50  59 S22       30.02S
LIBERAL        SUNNY     61  52  72 SW10      30.04S
$$

KSZ066>073-081>083-090>101-201600-
SOUTHEAST KANSAS

CITY           SKY/WX    TMP DP  RH WIND       PRES   REMARKS
CHANUTE        MOSUNNY   67  52  58 S13       30.13S
COFFEYVILLE    PTSUNNY   68  52  56 S14       30.13S
HUTCHINSON     CLOUDY    64  51  62 S12       30.06R
NEWTON         CLOUDY    66  50  55 S16       30.10S
PARSONS        PTSUNNY   67  52  58 S13       30.14S
WICHITA INTL   CLOUDY    65  52  62 S16       30.07S
WICHITA JABRA  CLOUDY    66  53  63 S18       30.07S
WINFIELD       CLOUDY    69  54  58 S21G26    30.09F
$$

KSZ007>012-019>026-033>040-048>060-102>105-201600-
NORTHEAST KANSAS

CITY           SKY/WX    TMP DP  RH WIND       PRES   REMARKS
CONCORDIA      PTSUNNY   67  51  56 SW17G25   30.01S
EMPORIA        MOSUNNY   68  52  56 S16G24    30.08S
LAWRENCE       PTSUNNY   70  52  52 S10       30.08F
MANHATTAN      MOSUNNY   72  52  49 S21       30.02F
OLATHE IND     PTSUNNY   68  51  54 S17       30.11S
OLATHE EXE     PTSUNNY   66  51  58 S14       30.10S
SALINA         MOSUNNY   69  51  52 S16       30.03F
TOPEKA BILLARD PTSUNNY   70  52  52 S12G21    30.07S
TOPEKA FORBES  MOSUNNY   69  51  52 S20       30.07S
$$



USA.gov is the U.S. government's official web portal to all federal, state and local government web resources and services.